Regional Weather Roundup
Issued by NWS Upton, NY

Home | Current Version | Previous Version | Text Only | Print | Product List | Glossary On
Versions: 1 2 3 4 5 6 7 8 9 10 11 12 13 14 15 16 17 18 19 20 21 22 23 24 25 26 27 28 29 30
000
ASUS41 KOKX 250409
RWROKX

REGIONAL WEATHER ROUNDUP
NATIONAL WEATHER SERVICE NEW YORK NY
1100 PM EST FRI NOV 24 2017

NOTE: "FAIR" INDICATES FEW OR NO CLOUDS BELOW 12,000 FEET WITH NO
SIGNIFICANT WEATHER AND/OR OBSTRUCTIONS TO VISIBILITY.

NYZ071-072-176-178-NJZ106-104-250500-
NEW YORK CITY METRO AREA

CITY           SKY/WX    TMP DP  RH WIND       PRES   REMARKS
Central Park   CLEAR     45  29  53 VRB3      29.97S
Bronx Bot Gard   N/A     45  28  53 SW3       29.94F
Bronx Lehman C   N/A     46 N/A N/A SW9         N/A
LaGuardia APRT CLEAR     46  31  55 S9        29.95S
Queens College   N/A     45 N/A N/A SW5         N/A
Kennedy INTL   CLEAR     41  32  70 SW9       29.97S
Breezy Point     N/A     43 N/A N/A SW9         N/A
Brooklyn Coll    N/A     45 N/A N/A SW3         N/A
Staten Island    N/A     41 N/A N/A S3          N/A
Newark/Liberty CLEAR     41  28  60 SW6       29.95F
Teterboro      CLEAR     39  30  70 SW3       29.94F
$$

NYZ177-179-078>081-250500-
LONG ISLAND NEW YORK

CITY           SKY/WX    TMP DP  RH WIND       PRES   REMARKS
Jones Beach      N/A     46 N/A N/A SW9G15      N/A
Wantagh          N/A     46 N/A N/A SW7         N/A
Matinecock PT    N/A     45 N/A N/A SW8         N/A
Farmingdale    CLEAR     43  34  70 W5        29.95F
MacArthur/ISP  CLEAR     41  35  79 SW6       29.94F
Shirley        CLEAR     40  35  83 CALM      29.95F
Mt Sinai Harb    N/A    N/A N/A N/A CALM        N/A
Westhampton    CLEAR     45  35  68 SW3       29.96F
East Hampton   FAIR      34  32  93 CALM      29.95F
Southold         N/A     32 N/A N/A SW1         N/A
Montauk          N/A     49  39  68 VRB5      29.96
$$

NYZ052-065-067-250500-
HUDSON VALLEY

CITY           SKY/WX    TMP DP  RH WIND       PRES   REMARKS
White Plains   CLEAR     36  28  73 CALM      29.92F
Larchmont Harb   N/A     46 N/A N/A SW9         N/A
Croton On Huds   N/A     43 N/A N/A S7          N/A
Somers           N/A     39 N/A N/A SW3         N/A
Brewster         N/A     32 N/A N/A CALM        N/A
Newburgh       CLEAR     34  25  69 CALM      29.92F
Montgomery     CLEAR     27  23  85 S3        29.90F
Suffern          N/A     36 N/A N/A SW2         N/A
Poughkeepsie   CLEAR     30  23  75 SE3       29.91F
Albany         MOCLDY    42  22  44 S12       29.85F
$$

NJZ001-105-106-008-010-013-015-019>022-104-250500-
NEW JERSEY

CITY           SKY/WX    TMP DP  RH WIND       PRES   REMARKS
Newark/Liberty CLEAR     41  28  60 SW6       29.95F
Teterboro      CLEAR     39  30  70 SW3       29.94F
Caldwell       CLEAR     32  25  75 CALM      29.95F
Somerville     CLEAR     28  24  85 CALM      29.93F
Linden         FAIR      40  27  61 CALM      29.96S
Perth Amboy      N/A     39 N/A N/A W2          N/A
Sussex         CLEAR     29  24  82 SW5       29.92F WCI  24
Andover          N/A     29  25  85 CALM      29.93
Trenton        CLEAR     36  26  67 CALM      29.95F
Millville      CLEAR     29  29 100 CALM      29.96F
Atlantic City  CLEAR     33  31  92 CALM      29.96F
Wrightstown    CLEAR     34  28  77 CALM      29.92F
Toms River     CLEAR     27  25  92 CALM      29.96F
Belmar         NOT AVBL
$$

PAZ047>061-062-071-250500-
EASTERN PENNSYLVANIA

CITY           SKY/WX    TMP DP  RH WIND       PRES   REMARKS
Philadelphia   CLEAR     41  32  70 S7        29.96F
Allentown      CLEAR     30  23  75 NW5       29.94S WCI  25
Scranton       CLEAR     42  24  49 SW10      29.86F
$$

CTZ002-004>006-009-010-012-RIZ004-006-007-MAZ004-011-015-250500-
SOUTHERN NEW ENGLAND
 IN CT

CITY           SKY/WX    TMP DP  RH WIND       PRES   REMARKS
Bradley INTL   CLEAR     36  30  79 S8        29.92F WCI  30
Hartford       CLEAR     38  32  79 S6        29.93F WCI  33
Danbury        CLEAR     32  26  78 CALM      29.93F
Wtrbury/Oxford CLEAR     38  29  70 SW5       29.92F WCI  34
Norwalk Harbor   N/A     46 N/A N/A SW14        N/A
Bridgeport     PTCLDY    48  35  60 SW12      29.94F
Meriden        CLEAR     29  27  92 CALM      29.94F
New Haven      CLEAR     48  37  65 SW6       29.94F
Chester        FAIR      43  36  75 SW3       29.93F
Groton         CLEAR     48  37  65 SW12      29.94F
Wilimantic     CLEAR     30  27  88 CALM      29.95F

 IN RI

CITY           SKY/WX    TMP DP  RH WIND       PRES   REMARKS
Providence     CLEAR     38  35  89 W5        29.94F WCI  34
Block Island     N/A    N/A N/A N/A MISG        N/A
Westerly       CLEAR     46  39  76 SW6       29.95F
 IN MA

CITY           SKY/WX    TMP DP  RH WIND       PRES   REMARKS
Boston         CLEAR     40  33  76 S12       29.92F WCI  33
Worcester      CLEAR     37  26  64 SW17      29.87F WCI  27
Westfield      CLEAR     31  27  85 S6        29.90F WCI  25
Provincetown   CLEAR     47  42  83 SW14      29.95
Nantucket      CLEAR     48  44  86 SW10      29.97F
$$

ANZ330-335-338-340-345-350-353-355-250500-
COASTAL MARINE OBSERVATIONS


STATION/POSITION TIME  SKY/WX   TEMP    WIND        PRES    VSBY  WAVE
                                AIR SEA DIR/SP/G                  HT/PER
                 (UTC)          (F)     (DEG/KT/KT) (MB)    (MI)  (FT/S)
NY HARB ENTRANCE 0350            50 55  230/ 14/ 17 1013.5          4/ 9
20 S FIRE ISLAND 0350            51 56  220/ 14/ 17 1014.2          4/10
GREAT SOUTH BAY  0315            47 44  230/  8/ 10   N/A
HUDSON CANYON    0350            53 59  190/ 10/ 14 1014.5          4/ 9
KINGS POINT      0342            45 49  240/  6/  8 1015.0
EXECUTION ROCKS  0330            47     190/ 10/ 12   N/A
WESTERN LI SOUND 0249            47     210/ 10/ 14   N/A           0
CENTRAL LI SOUND NOT AVBL
ROBBINS REEF     0348            44     230/  7/ 10 1014.9
$$


>>>>>>>>>>>>>>>>>>>>>>>>>>>> KEY <<<<<<<<<<<<<<<<<<<<<<<<<<<
>                                                          <
>     SKY/WX - Sky Condition/Present Weather               <
>     TMP    - Temperature in Fahrenheit                   <
>     DP     - Dew Point in Fahrenheit                     <
>     RH     - Relative Humidity in Percent                <
>     WIND   - Direction (from) and Speed in MPH           <
>     PRES   - Mean Sea Level Pressure (inches of Hg)      <
>     WCI    - Wind Chill Index                            <
>     VSB    - VISIBILITY IN MILES                         <
>     HX     - HEAT INDEX                                  <
>     TC     - TEMPERATURE IN CELSIUS                      <
>     VRB    - VARIABLE WIND DIRECTION                     <
>                                                          <
>>>>>>>>>>>>>>>>>>>>>>>>>>>> KEY <<<<<<<<<<<<<<<<<<<<<<<<<<<




USA.gov is the U.S. government's official web portal to all federal, state and local government web resources and services.